Time,TemperatureF,DewpointF,PressureIn,WindDirection,WindDirectionDegrees,WindSpeedMPH,WindSpeedGustMPH,Humidity,HourlyPrecipIn,Conditions,Clouds,dailyrainin,SoftwareType,DateUTC
2013-03-13 00:04:00,34.0,-99.9,0.00,East,87,4.0,4.0,-999,0.00,,,-99.99,,2013-03-13 05:04:00,
2013-03-13 00:09:00,33.0,-99.9,0.00,East,89,4.0,4.0,-999,0.00,,,-99.99,,2013-03-13 05:09:00,
2013-03-13 00:14:00,30.0,-99.9,0.00,SSE,147,3.0,4.0,-999,0.00,,,-99.99,,2013-03-13 05:14:00,
2013-03-13 00:19:00,30.0,-99.9,0.00,SE,134,4.0,4.0,-999,0.00,,,-99.99,,2013-03-13 05:19:00,
2013-03-13 00:24:00,32.0,-99.9,0.00,ESE,117,4.0,4.0,-999,0.00,,,-99.99,,2013-03-13 05:24:00,
2013-03-13 00:29:00,31.0,-99.9,0.00,ESE,120,4.0,4.0,-999,0.00,,,-99.99,,2013-03-13 05:29:00,
2013-03-13 00:34:00,31.0,-99.9,0.00,SE,141,5.0,5.0,-999,0.00,,,-99.99,,2013-03-13 05:34:00,
2013-03-13 00:39:00,31.0,-99.9,0.00,SE,140,5.0,5.0,-999,0.00,,,-99.99,,2013-03-13 05:39:00,
2013-03-13 00:44:00,32.0,-99.9,0.00,ESE,117,5.0,5.0,-999,0.00,,,-99.99,,2013-03-13 05:44:00,
2013-03-13 00:49:00,33.0,-99.9,0.00,ESE,107,5.0,5.0,-999,0.00,,,-99.99,,2013-03-13 05:49:00,
2013-03-13 00:54:00,33.0,-99.9,0.00,ESE,114,5.0,6.0,-999,0.00,,,-99.99,,2013-03-13 05:54:00,
2013-03-13 00:59:00,32.0,-99.9,0.00,East,85,6.0,7.0,-999,0.00,,,-99.99,,2013-03-13 05:59:00,
2013-03-13 01:04:00,32.0,-99.9,0.00,NE,49,9.0,10.0,-999,0.00,,,-99.99,,2013-03-13 06:04:00,
2013-03-13 01:09:00,27.0,-99.9,0.00,NNE,32,9.0,10.0,-999,0.00,,,-99.99,,2013-03-13 06:09:00,
2013-03-13 01:14:00,28.0,-99.9,0.00,NE,51,3.0,4.0,-999,0.00,,,-99.99,,2013-03-13 06:14:00,
2013-03-13 01:19:00,26.0,-99.9,0.00,South,185,5.0,5.0,-999,0.00,,,-99.99,,2013-03-13 06:19:00,
2013-03-13 01:24:00,27.0,-99.9,0.00,SSE,162,6.0,6.0,-999,0.00,,,-99.99,,2013-03-13 06:24:00,
2013-03-13 01:29:00,26.0,-99.9,0.00,South,175,7.0,8.0,-999,0.00,,,-99.99,,2013-03-13 06:29:00,
2013-03-13 01:34:00,26.0,-99.9,0.00,South,173,8.0,8.0,-999,0.00,,,-99.99,,2013-03-13 06:34:00,
2013-03-13 01:39:00,25.0,-99.9,0.00,South,179,7.0,8.0,-999,0.00,,,-99.99,,2013-03-13 06:39:00,
2013-03-13 01:44:00,26.0,-99.9,0.00,South,179,8.0,8.0,-999,0.00,,,-99.99,,2013-03-13 06:44:00,
2013-03-13 01:49:00,27.0,-99.9,0.00,South,176,7.0,8.0,-999,0.00,,,-99.99,,2013-03-13 06:49:00,
2013-03-13 01:54:00,27.0,-99.9,0.00,SSE,166,7.0,8.0,-999,0.00,,,-99.99,,2013-03-13 06:54:00,
2013-03-13 01:59:00,26.0,-99.9,0.00,South,180,7.0,8.0,-999,0.00,,,-99.99,,2013-03-13 06:59:00,
2013-03-13 02:04:00,27.0,-99.9,0.00,South,169,8.0,8.0,-999,0.00,,,-99.99,,2013-03-13 07:04:00,
2013-03-13 02:09:00,28.0,-99.9,0.00,SSE,168,8.0,8.0,-999,0.00,,,-99.99,,2013-03-13 07:09:00,
2013-03-13 02:14:00,27.0,-99.9,0.00,South,173,8.0,8.0,-999,0.00,,,-99.99,,2013-03-13 07:14:00,
2013-03-13 02:19:00,26.0,-99.9,0.00,SSE,166,7.0,8.0,-999,0.00,,,-99.99,,2013-03-13 07:19:00,
2013-03-13 02:24:00,27.0,-99.9,0.00,SSE,166,7.0,8.0,-999,0.00,,,-99.99,,2013-03-13 07:24:00,
2013-03-13 02:29:00,27.0,-99.9,0.00,South,171,7.0,8.0,-999,0.00,,,-99.99,,2013-03-13 07:29:00,
2013-03-13 02:34:00,27.0,-99.9,0.00,South,169,7.0,8.0,-999,0.00,,,-99.99,,2013-03-13 07:34:00,
2013-03-13 02:39:00,28.0,-99.9,0.00,SSE,168,7.0,8.0,-999,0.00,,,-99.99,,2013-03-13 07:39:00,
2013-03-13 02:44:00,27.0,-99.9,0.00,South,172,7.0,8.0,-999,0.00,,,-99.99,,2013-03-13 07:44:00,
2013-03-13 02:49:00,26.0,-99.9,0.00,South,178,8.0,8.0,-999,0.00,,,-99.99,,2013-03-13 07:49:00,
2013-03-13 02:54:00,27.0,-99.9,0.00,South,171,7.0,8.0,-999,0.00,,,-99.99,,2013-03-13 07:54:00,
2013-03-13 02:59:00,28.0,-99.9,0.00,South,172,7.0,7.0,-999,0.00,,,-99.99,,2013-03-13 07:59:00,
2013-03-13 03:04:00,26.0,-99.9,0.00,South,185,7.0,7.0,-999,0.00,,,-99.99,,2013-03-13 08:04:00,
2013-03-13 03:09:00,26.0,-99.9,0.00,South,186,7.0,8.0,-999,0.00,,,-99.99,,2013-03-13 08:09:00,
2013-03-13 03:14:00,27.0,-99.9,0.00,South,183,7.0,9.0,-999,0.00,,,-99.99,,2013-03-13 08:14:00,
2013-03-13 03:19:00,28.0,-99.9,0.00,South,178,7.0,8.0,-999,0.00,,,-99.99,,2013-03-13 08:19:00,
2013-03-13 03:24:00,28.0,-99.9,0.00,South,175,7.0,8.0,-999,0.00,,,-99.99,,2013-03-13 08:24:00,
2013-03-13 03:34:00,28.0,-99.9,0.00,SSW,199,7.0,8.0,-999,0.00,,,-99.99,,2013-03-13 08:34:00,
2013-03-13 03:39:00,28.0,-99.9,0.00,South,183,7.0,7.0,-999,0.00,,,-99.99,,2013-03-13 08:39:00,
2013-03-13 03:44:00,28.0,-99.9,0.00,South,171,7.0,7.0,-999,0.00,,,-99.99,,2013-03-13 08:44:00,
2013-03-13 03:49:00,27.0,-99.9,0.00,South,189,7.0,8.0,-999,0.00,,,-99.99,,2013-03-13 08:49:00,
2013-03-13 03:54:00,28.0,-99.9,0.00,South,189,8.0,8.0,-999,0.00,,,-99.99,,2013-03-13 08:54:00,
2013-03-13 03:59:00,28.0,-99.9,0.00,South,180,7.0,7.0,-999,0.00,,,-99.99,,2013-03-13 08:59:00,
2013-03-13 04:04:00,27.0,-99.9,0.00,South,189,8.0,8.0,-999,0.00,,,-99.99,,2013-03-13 09:04:00,
2013-03-13 04:09:00,27.0,-99.9,0.00,South,176,7.0,7.0,-999,0.00,,,-99.99,,2013-03-13 09:09:00,
2013-03-13 04:15:00,27.0,-99.9,0.00,SSW,192,7.0,8.0,-999,0.00,,,-99.99,,2013-03-13 09:15:00,
2013-03-13 04:24:00,26.0,-99.9,0.00,South,180,8.0,9.0,-999,0.00,,,-99.99,,2013-03-13 09:24:00,
2013-03-13 04:29:00,25.0,-99.9,0.00,South,176,8.0,9.0,-999,0.00,,,-99.99,,2013-03-13 09:29:00,
2013-03-13 04:34:00,25.0,-99.9,0.00,South,190,8.0,9.0,-999,0.00,,,-99.99,,2013-03-13 09:34:00,
2013-03-13 04:39:00,26.0,-99.9,0.00,South,189,8.0,8.0,-999,0.00,,,-99.99,,2013-03-13 09:39:00,
2013-03-13 04:44:00,26.0,-99.9,0.00,SSW,192,7.0,8.0,-999,0.00,,,-99.99,,2013-03-13 09:44:00,
2013-03-13 04:49:00,25.0,-99.9,0.00,South,180,7.0,7.0,-999,0.00,,,-99.99,,2013-03-13 09:49:00,
2013-03-13 04:54:00,25.0,-99.9,0.00,South,183,6.0,7.0,-999,0.00,,,-99.99,,2013-03-13 09:54:00,
2013-03-13 04:59:00,26.0,-99.9,0.00,SSW,192,7.0,8.0,-999,0.00,,,-99.99,,2013-03-13 09:59:00,
2013-03-13 05:04:00,29.0,-99.9,0.00,South,175,9.0,10.0,-999,0.00,,,-99.99,,2013-03-13 10:04:00,
2013-03-13 05:09:00,29.0,-99.9,0.00,South,178,9.0,10.0,-999,0.00,,,-99.99,,2013-03-13 10:09:00,
2013-03-13 05:14:00,29.0,-99.9,0.00,South,183,9.0,10.0,-999,0.00,,,-99.99,,2013-03-13 10:14:00,
2013-03-13 05:19:00,28.0,-99.9,0.00,South,173,10.0,10.0,-999,0.00,,,-99.99,,2013-03-13 10:19:00,
2013-03-13 05:24:00,28.0,-99.9,0.00,South,176,10.0,11.0,-999,0.00,,,-99.99,,2013-03-13 10:24:00,
2013-03-13 05:29:00,28.0,-99.9,0.00,South,178,8.0,9.0,-999,0.00,,,-99.99,,2013-03-13 10:29:00,
2013-03-13 05:34:00,28.0,-99.9,0.00,South,183,9.0,9.0,-999,0.00,,,-99.99,,2013-03-13 10:34:00,
2013-03-13 05:39:00,27.0,-99.9,0.00,South,172,8.0,8.0,-999,0.00,,,-99.99,,2013-03-13 10:39:00,
2013-03-13 05:44:00,26.0,-99.9,0.00,South,169,6.0,7.0,-999,0.00,,,-99.99,,2013-03-13 10:44:00,
2013-03-13 05:49:00,26.0,-99.9,0.00,South,169,7.0,7.0,-999,0.00,,,-99.99,,2013-03-13 10:49:00,
2013-03-13 05:54:00,26.0,-99.9,0.00,South,179,7.0,7.0,-999,0.00,,,-99.99,,2013-03-13 10:54:00,
2013-03-13 05:59:00,25.0,-99.9,0.00,South,172,6.0,6.0,-999,0.00,,,-99.99,,2013-03-13 10:59:00,
2013-03-13 06:04:00,26.0,-99.9,0.00,South,171,6.0,6.0,-999,0.00,,,-99.99,,2013-03-13 11:04:00,
2013-03-13 06:09:00,26.0,-99.9,0.00,SSE,159,5.0,6.0,-999,0.00,,,-99.99,,2013-03-13 11:09:00,
2013-03-13 06:14:00,27.0,-99.9,0.00,SSE,165,5.0,6.0,-999,0.00,,,-99.99,,2013-03-13 11:14:00,
2013-03-13 06:19:00,27.0,-99.9,0.00,SSE,164,5.0,6.0,-999,0.00,,,-99.99,,2013-03-13 11:19:00,
2013-03-13 06:24:00,27.0,-99.9,0.00,SSE,164,5.0,6.0,-999,0.00,,,-99.99,,2013-03-13 11:24:00,
2013-03-13 06:29:00,27.0,-99.9,0.00,SSE,157,5.0,6.0,-999,0.00,,,-99.99,,2013-03-13 11:29:00,
2013-03-13 06:34:00,27.0,-99.9,0.00,SSE,168,5.0,7.0,-999,0.00,,,-99.99,,2013-03-13 11:34:00,
2013-03-13 06:39:00,27.0,-99.9,0.00,South,169,7.0,8.0,-999,0.00,,,-99.99,,2013-03-13 11:39:00,
2013-03-13 06:44:00,27.0,-99.9,0.00,South,178,9.0,10.0,-999,0.00,,,-99.99,,2013-03-13 11:44:00,
2013-03-13 06:49:00,28.0,-99.9,0.00,SSE,168,8.0,10.0,-999,0.00,,,-99.99,,2013-03-13 11:49:00,
2013-03-13 06:54:00,28.0,-99.9,0.00,SSE,155,9.0,10.0,-999,0.00,,,-99.99,,2013-03-13 11:54:00,
2013-03-13 06:59:00,28.0,-99.9,0.00,South,172,10.0,11.0,-999,0.00,,,-99.99,,2013-03-13 11:59:00,
2013-03-13 07:04:00,28.0,-99.9,0.00,SSE,168,11.0,12.0,-999,0.00,,,-99.99,,2013-03-13 12:04:00,
2013-03-13 07:09:00,28.0,-99.9,0.00,SSE,161,11.0,12.0,-999,0.00,,,-99.99,,2013-03-13 12:09:00,
2013-03-13 07:14:00,28.0,-99.9,0.00,SSE,164,11.0,12.0,-999,0.00,,,-99.99,,2013-03-13 12:14:00,
2013-03-13 07:19:00,28.0,-99.9,0.00,SSE,166,10.0,11.0,-999,0.00,,,-99.99,,2013-03-13 12:19:00,
2013-03-13 07:24:00,28.0,-99.9,0.00,SSE,165,9.0,10.0,-999,0.00,,,-99.99,,2013-03-13 12:24:00,
2013-03-13 07:34:00,28.0,-99.9,0.00,SSE,158,10.0,11.0,-999,0.00,,,-99.99,,2013-03-13 12:34:00,
2013-03-13 07:39:00,29.0,-99.9,0.00,SSE,158,7.0,8.0,-999,0.00,,,-99.99,,2013-03-13 12:39:00,
2013-03-13 07:44:00,29.0,-99.9,0.00,SE,124,5.0,7.0,-999,0.00,,,-99.99,,2013-03-13 12:44:00,
2013-03-13 07:49:00,29.0,-99.9,0.00,ESE,123,4.0,6.0,-999,0.00,,,-99.99,,2013-03-13 12:49:00,
2013-03-13 07:54:00,30.0,-99.9,0.00,SSE,149,6.0,8.0,-999,0.00,,,-99.99,,2013-03-13 12:54:00,
2013-03-13 07:59:00,30.0,-99.9,0.00,SSE,148,7.0,8.0,-999,0.00,,,-99.99,,2013-03-13 12:59:00,
2013-03-13 08:04:00,29.0,-99.9,0.00,SE,145,8.0,10.0,-999,0.00,,,-99.99,,2013-03-13 13:04:00,
2013-03-13 08:09:00,29.0,-99.9,0.00,SSE,157,9.0,11.0,-999,0.00,,,-99.99,,2013-03-13 13:09:00,
2013-03-13 08:14:00,29.0,-99.9,0.00,SSE,157,12.0,13.0,-999,0.00,,,-99.99,,2013-03-13 13:14:00,
2013-03-13 08:19:00,30.0,-99.9,0.00,SSE,162,13.0,15.0,-999,0.00,,,-99.99,,2013-03-13 13:19:00,
2013-03-13 08:24:00,30.0,-99.9,0.00,South,176,12.0,14.0,-999,0.00,,,-99.99,,2013-03-13 13:24:00,
2013-03-13 08:34:00,31.0,-99.9,0.00,South,169,11.0,13.0,-999,0.00,,,-99.99,,2013-03-13 13:34:00,
2013-03-13 08:39:00,31.0,-99.9,0.00,SSE,166,12.0,14.0,-999,0.00,,,-99.99,,2013-03-13 13:39:00,
2013-03-13 08:44:00,31.0,-99.9,0.00,SSE,162,13.0,14.0,-999,0.00,,,-99.99,,2013-03-13 13:44:00,
2013-03-13 08:54:00,32.0,-99.9,0.00,SSE,147,10.0,12.0,-999,0.00,,,-99.99,,2013-03-13 13:54:00,
2013-03-13 08:59:00,32.0,-99.9,0.00,SSE,166,11.0,14.0,-999,0.00,,,-99.99,,2013-03-13 13:59:00,
2013-03-13 09:04:00,33.0,-99.9,0.00,SSE,155,12.0,15.0,-999,0.00,,,-99.99,,2013-03-13 14:04:00,
2013-03-13 09:09:00,34.0,-99.9,0.00,SSE,164,11.0,13.0,-999,0.00,,,-99.99,,2013-03-13 14:09:00,
2013-03-13 09:14:00,33.0,-99.9,0.00,SE,141,13.0,15.0,-999,0.00,,,-99.99,,2013-03-13 14:14:00,
2013-03-13 09:19:00,34.0,-99.9,0.00,SSE,166,13.0,15.0,-999,0.00,,,-99.99,,2013-03-13 14:19:00,
2013-03-13 09:24:00,34.0,-99.9,0.00,SSE,165,13.0,16.0,-999,0.00,,,-99.99,,2013-03-13 14:24:00,
2013-03-13 09:34:00,36.0,-99.9,0.00,South,178,13.0,14.0,-999,0.00,,,-99.99,,2013-03-13 14:34:00,
2013-03-13 09:39:00,36.0,-99.9,0.00,SSE,154,15.0,17.0,-999,0.00,,,-99.99,,2013-03-13 14:39:00,
2013-03-13 09:44:00,37.0,-99.9,0.00,SSE,155,16.0,19.0,-999,0.00,,,-99.99,,2013-03-13 14:44:00,
2013-03-13 09:49:00,37.0,-99.9,0.00,South,171,17.0,19.0,-999,0.00,,,-99.99,,2013-03-13 14:49:00,
2013-03-13 09:54:00,39.0,-99.9,0.00,SSE,162,16.0,19.0,-999,0.00,,,-99.99,,2013-03-13 14:54:00,
2013-03-13 09:59:00,39.0,-99.9,0.00,South,179,17.0,19.0,-999,0.00,,,-99.99,,2013-03-13 14:59:00,
2013-03-13 10:04:00,38.0,-99.9,0.00,South,176,21.0,23.0,-999,0.00,,,-99.99,,2013-03-13 15:04:00,
2013-03-13 10:09:00,39.0,-99.9,0.00,SSE,158,18.0,21.0,-999,0.00,,,-99.99,,2013-03-13 15:09:00,
2013-03-13 10:15:00,39.0,-99.9,0.00,South,180,20.0,23.0,-999,0.00,,,-99.99,,2013-03-13 15:15:00,
2013-03-13 10:24:00,40.0,-99.9,0.00,South,171,19.0,22.0,-999,0.00,,,-99.99,,2013-03-13 15:24:00,
2013-03-13 10:29:00,41.0,-99.9,0.00,South,179,19.0,21.0,-999,0.00,,,-99.99,,2013-03-13 15:29:00,
2013-03-13 10:34:00,41.0,-99.9,0.00,South,176,17.0,19.0,-999,0.00,,,-99.99,,2013-03-13 15:34:00,
2013-03-13 10:39:00,41.0,-99.9,0.00,South,180,18.0,20.0,-999,0.00,,,-99.99,,2013-03-13 15:39:00,
2013-03-13 10:44:00,41.0,-99.9,0.00,SSE,157,18.0,20.0,-999,0.00,,,-99.99,,2013-03-13 15:44:00,
2013-03-13 10:49:00,42.0,-99.9,0.00,South,172,17.0,19.0,-999,0.00,,,-99.99,,2013-03-13 15:49:00,
2013-03-13 10:54:00,42.0,-99.9,0.00,SSE,159,15.0,17.0,-999,0.00,,,-99.99,,2013-03-13 15:54:00,
2013-03-13 10:59:00,42.0,-99.9,0.00,SSE,168,18.0,21.0,-999,0.00,,,-99.99,,2013-03-13 15:59:00,
2013-03-13 11:04:00,43.0,-99.9,0.00,South,172,19.0,21.0,-999,0.00,,,-99.99,,2013-03-13 16:04:00,
2013-03-13 11:09:00,43.0,-99.9,0.00,SSE,161,20.0,23.0,-999,0.00,,,-99.99,,2013-03-13 16:09:00,
2013-03-13 11:14:00,45.0,-99.9,0.00,South,176,19.0,23.0,-999,0.00,,,-99.99,,2013-03-13 16:14:00,
2013-03-13 11:19:00,45.0,-99.9,0.00,South,171,20.0,24.0,-999,0.00,,,-99.99,,2013-03-13 16:19:00,
2013-03-13 11:24:00,46.0,-99.9,0.00,SSE,166,19.0,22.0,-999,0.00,,,-99.99,,2013-03-13 16:24:00,
2013-03-13 11:29:00,46.0,-99.9,0.00,SSE,158,18.0,23.0,-999,0.00,,,-99.99,,2013-03-13 16:29:00,
2013-03-13 11:34:00,46.0,-99.9,0.00,South,182,18.0,22.0,-999,0.00,,,-99.99,,2013-03-13 16:34:00,
2013-03-13 11:39:00,46.0,-99.9,0.00,South,188,19.0,22.0,-999,0.00,,,-99.99,,2013-03-13 16:39:00,
2013-03-13 11:44:00,46.0,-99.9,0.00,South,186,17.0,21.0,-999,0.00,,,-99.99,,2013-03-13 16:44:00,
2013-03-13 11:49:00,47.0,-99.9,0.00,South,186,19.0,22.0,-999,0.00,,,-99.99,,2013-03-13 16:49:00,
2013-03-13 11:54:00,47.0,-99.9,0.00,South,178,19.0,25.0,-999,0.00,,,-99.99,,2013-03-13 16:54:00,
2013-03-13 11:59:00,47.0,-99.9,0.00,South,179,18.0,21.0,-999,0.00,,,-99.99,,2013-03-13 16:59:00,
2013-03-13 12:04:00,47.0,-99.9,0.00,SSW,192,19.0,22.0,-999,0.00,,,-99.99,,2013-03-13 17:04:00,
2013-03-13 12:09:00,47.0,-99.9,0.00,SSW,195,18.0,21.0,-999,0.00,,,-99.99,,2013-03-13 17:09:00,
2013-03-13 12:14:00,47.0,-99.9,0.00,South,183,19.0,22.0,-999,0.00,,,-99.99,,2013-03-13 17:14:00,
2013-03-13 12:19:00,49.0,-99.9,0.00,SSE,158,17.0,20.0,-999,0.00,,,-99.99,,2013-03-13 17:19:00,
2013-03-13 12:24:00,48.0,-99.9,0.00,South,190,19.0,21.0,-999,0.00,,,-99.99,,2013-03-13 17:24:00,
2013-03-13 12:29:00,49.0,-99.9,0.00,SSW,204,17.0,20.0,-999,0.00,,,-99.99,,2013-03-13 17:29:00,
2013-03-13 12:34:00,50.0,-99.9,0.00,South,172,18.0,20.0,-999,0.00,,,-99.99,,2013-03-13 17:34:00,
2013-03-13 12:39:00,49.0,-99.9,0.00,South,189,17.0,22.0,-999,0.00,,,-99.99,,2013-03-13 17:39:00,
2013-03-13 12:44:00,51.0,-99.9,0.00,South,176,17.0,20.0,-999,0.00,,,-99.99,,2013-03-13 17:44:00,
2013-03-13 12:49:00,51.0,-99.9,0.00,SSW,204,17.0,20.0,-999,0.00,,,-99.99,,2013-03-13 17:49:00,
2013-03-13 12:54:00,51.0,-99.9,0.00,South,178,18.0,20.0,-999,0.00,,,-99.99,,2013-03-13 17:54:00,
2013-03-13 12:59:00,50.0,-99.9,0.00,SSE,161,17.0,20.0,-999,0.00,,,-99.99,,2013-03-13 17:59:00,
2013-03-13 13:04:00,52.0,-99.9,0.00,South,186,16.0,19.0,-999,0.00,,,-99.99,,2013-03-13 18:04:00,
2013-03-13 13:09:00,51.0,-99.9,0.00,South,175,17.0,18.0,-999,0.00,,,-99.99,,2013-03-13 18:09:00,
2013-03-13 13:19:00,52.0,-99.9,0.00,South,182,16.0,18.0,-999,0.00,,,-99.99,,2013-03-13 18:19:00,
2013-03-13 13:24:00,53.0,-99.9,0.00,South,171,14.0,17.0,-999,0.00,,,-99.99,,2013-03-13 18:24:00,
2013-03-13 13:29:00,54.0,-99.9,0.00,SSW,202,14.0,18.0,-999,0.00,,,-99.99,,2013-03-13 18:29:00,
2013-03-13 13:34:00,55.0,-99.9,0.00,SSW,197,14.0,18.0,-999,0.00,,,-99.99,,2013-03-13 18:34:00,
2013-03-13 13:39:00,55.0,-99.9,0.00,SSE,168,15.0,18.0,-999,0.00,,,-99.99,,2013-03-13 18:39:00,
2013-03-13 13:44:00,55.0,-99.9,0.00,South,185,13.0,17.0,-999,0.00,,,-99.99,,2013-03-13 18:44:00,
2013-03-13 13:49:00,56.0,-99.9,0.00,South,188,13.0,17.0,-999,0.00,,,-99.99,,2013-03-13 18:49:00,
2013-03-13 13:54:00,56.0,-99.9,0.00,SSW,207,12.0,16.0,-999,0.00,,,-99.99,,2013-03-13 18:54:00,
2013-03-13 14:04:00,56.0,-99.9,0.00,SSE,147,13.0,15.0,-999,0.00,,,-99.99,,2013-03-13 19:04:00,
2013-03-13 14:09:00,58.0,-99.9,0.00,SSW,197,14.0,17.0,-999,0.00,,,-99.99,,2013-03-13 19:09:00,
2013-03-13 14:19:00,59.0,-99.9,0.00,South,175,12.0,15.0,-999,0.00,,,-99.99,,2013-03-13 19:19:00,
2013-03-13 14:24:00,59.0,-99.9,0.00,South,173,11.0,13.0,-999,0.00,,,-99.99,,2013-03-13 19:24:00,
2013-03-13 14:29:00,58.0,-99.9,0.00,SSW,193,12.0,16.0,-999,0.00,,,-99.99,,2013-03-13 19:29:00,
2013-03-13 14:34:00,60.0,-99.9,0.00,SSW,212,10.0,13.0,-999,0.00,,,-99.99,,2013-03-13 19:34:00,
2013-03-13 14:39:00,60.0,-99.9,0.00,SSW,199,9.0,10.0,-999,0.00,,,-99.99,,2013-03-13 19:39:00,
2013-03-13 14:44:00,60.0,-99.9,0.00,South,183,9.0,11.0,-999,0.00,,,-99.99,,2013-03-13 19:44:00,
2013-03-13 14:49:00,60.0,-99.9,0.00,South,188,10.0,12.0,-999,0.00,,,-99.99,,2013-03-13 19:49:00,
2013-03-13 14:54:00,60.0,-99.9,0.00,SW,224,10.0,13.0,-999,0.00,,,-99.99,,2013-03-13 19:54:00,
2013-03-13 15:04:00,61.0,-99.9,0.00,SW,216,11.0,14.0,-999,0.00,,,-99.99,,2013-03-13 20:04:00,
2013-03-13 15:09:00,61.0,-99.9,0.00,SW,233,11.0,14.0,-999,0.00,,,-99.99,,2013-03-13 20:09:00,
2013-03-13 15:19:00,62.0,-99.9,0.00,SW,214,10.0,13.0,-999,0.00,,,-99.99,,2013-03-13 20:19:00,
2013-03-13 15:24:00,62.0,-99.9,0.00,SSE,168,9.0,12.0,-999,0.00,,,-99.99,,2013-03-13 20:24:00,
2013-03-13 15:29:00,62.0,-99.9,0.00,SSE,165,11.0,12.0,-999,0.00,,,-99.99,,2013-03-13 20:29:00,
2013-03-13 15:34:00,64.0,-99.9,0.00,West,261,10.0,11.0,-999,0.00,,,-99.99,,2013-03-13 20:34:00,
2013-03-13 15:39:00,63.0,-99.9,0.00,SW,234,11.0,15.0,-999,0.00,,,-99.99,,2013-03-13 20:39:00,
2013-03-13 15:44:00,63.0,-99.9,0.00,West,264,10.0,12.0,-999,0.00,,,-99.99,,2013-03-13 20:44:00,
2013-03-13 15:49:00,63.0,-99.9,0.00,SW,234,11.0,13.0,-999,0.00,,,-99.99,,2013-03-13 20:49:00,
2013-03-13 15:54:00,64.0,-99.9,0.00,WSW,257,11.0,15.0,-999,0.00,,,-99.99,,2013-03-13 20:54:00,
2013-03-13 15:59:00,63.0,-99.9,0.00,SW,235,9.0,12.0,-999,0.00,,,-99.99,,2013-03-13 20:59:00,
2013-03-13 16:04:00,63.0,-99.9,0.00,SW,223,8.0,11.0,-999,0.00,,,-99.99,,2013-03-13 21:04:00,
2013-03-13 16:09:00,64.0,-99.9,0.00,West,269,8.0,11.0,-999,0.00,,,-99.99,,2013-03-13 21:09:00,
2013-03-13 16:14:00,64.0,-99.9,0.00,WSW,241,13.0,18.0,-999,0.00,,,-99.99,,2013-03-13 21:14:00,
2013-03-13 16:19:00,64.0,-99.9,0.00,West,271,11.0,14.0,-999,0.00,,,-99.99,,2013-03-13 21:19:00,
2013-03-13 16:24:00,64.0,-99.9,0.00,WSW,247,8.0,10.0,-999,0.00,,,-99.99,,2013-03-13 21:24:00,
2013-03-13 16:34:00,64.0,-99.9,0.00,WSW,252,10.0,12.0,-999,0.00,,,-99.99,,2013-03-13 21:34:00,
2013-03-13 16:39:00,64.0,-99.9,0.00,West,265,9.0,13.0,-999,0.00,,,-99.99,,2013-03-13 21:39:00,
2013-03-13 16:49:00,65.0,-99.9,0.00,WNW,289,7.0,8.0,-999,0.00,,,-99.99,,2013-03-13 21:49:00,
2013-03-13 16:54:00,65.0,-99.9,0.00,NW,313,7.0,9.0,-999,0.00,,,-99.99,,2013-03-13 21:54:00,
2013-03-13 16:59:00,66.0,-99.9,0.00,WSW,257,5.0,6.0,-999,0.00,,,-99.99,,2013-03-13 21:59:00,
2013-03-13 17:04:00,65.0,-99.9,0.00,West,266,9.0,13.0,-999,0.00,,,-99.99,,2013-03-13 22:04:00,
2013-03-13 17:09:00,65.0,-99.9,0.00,WSW,248,12.0,15.0,-999,0.00,,,-99.99,,2013-03-13 22:09:00,
2013-03-13 17:14:00,65.0,-99.9,0.00,WSW,244,9.0,11.0,-999,0.00,,,-99.99,,2013-03-13 22:14:00,
2013-03-13 17:19:00,65.0,-99.9,0.00,West,278,11.0,12.0,-999,0.00,,,-99.99,,2013-03-13 22:19:00,
2013-03-13 17:24:00,65.0,-99.9,0.00,WNW,282,9.0,11.0,-999,0.00,,,-99.99,,2013-03-13 22:24:00,
2013-03-13 17:29:00,66.0,-99.9,0.00,WSW,237,9.0,12.0,-999,0.00,,,-99.99,,2013-03-13 22:29:00,
2013-03-13 17:34:00,65.0,-99.9,0.00,WSW,255,9.0,12.0,-999,0.00,,,-99.99,,2013-03-13 22:34:00,
2013-03-13 17:39:00,66.0,-99.9,0.00,WSW,237,7.0,8.0,-999,0.00,,,-99.99,,2013-03-13 22:39:00,
2013-03-13 17:45:00,65.0,-99.9,0.00,WSW,250,8.0,10.0,-999,0.00,,,-99.99,,2013-03-13 22:45:00,
2013-03-13 17:54:00,66.0,-99.9,0.00,WSW,250,1.0,3.0,-999,0.00,,,-99.99,,2013-03-13 22:54:00,
2013-03-13 17:59:00,65.0,-99.9,0.00,West,268,5.0,6.0,-999,0.00,,,-99.99,,2013-03-13 22:59:00,
2013-03-13 18:04:00,65.0,-99.9,0.00,North,0,0.0,0.0,-999,0.00,,,-99.99,,2013-03-13 23:04:00,
2013-03-13 18:09:00,65.0,-99.9,0.00,North,0,0.0,0.0,-999,0.00,,,-99.99,,2013-03-13 23:09:00,
2013-03-13 18:14:00,65.0,-99.9,0.00,NW,306,6.0,9.0,-999,0.00,,,-99.99,,2013-03-13 23:14:00,
2013-03-13 18:24:00,65.0,-99.9,0.00,WNW,296,5.0,6.0,-999,0.00,,,-99.99,,2013-03-13 23:24:00,
2013-03-13 18:29:00,65.0,-99.9,0.00,WNW,288,6.0,6.0,-999,0.00,,,-99.99,,2013-03-13 23:29:00,
2013-03-13 18:34:00,65.0,-99.9,0.00,WNW,290,5.0,5.0,-999,0.00,,,-99.99,,2013-03-13 23:34:00,
2013-03-13 18:39:00,64.0,-99.9,0.00,West,279,6.0,6.0,-999,0.00,,,-99.99,,2013-03-13 23:39:00,
2013-03-13 18:45:00,64.0,-99.9,0.00,West,281,4.0,5.0,-999,0.00,,,-99.99,,2013-03-13 23:45:00,
2013-03-13 18:54:00,64.0,-99.9,0.00,North,0,0.0,0.0,-999,0.00,,,-99.99,,2013-03-13 23:54:00,
2013-03-13 18:59:00,64.0,-99.9,0.00,North,0,0.0,0.0,-999,0.00,,,-99.99,,2013-03-13 23:59:00,
2013-03-13 19:04:00,64.0,-99.9,0.00,North,0,0.0,0.0,-999,0.00,,,-99.99,,2013-03-14 00:04:00,
2013-03-13 19:09:00,64.0,-99.9,0.00,North,0,0.0,0.0,-999,0.00,,,-99.99,,2013-03-14 00:09:00,
2013-03-13 19:14:00,64.0,-99.9,0.00,North,0,0.0,0.0,-999,0.00,,,-99.99,,2013-03-14 00:14:00,
2013-03-13 19:19:00,62.0,-99.9,0.00,North,0,0.0,0.0,-999,0.00,,,-99.99,,2013-03-14 00:19:00,
2013-03-13 19:24:00,62.0,-99.9,0.00,North,0,0.0,0.0,-999,0.00,,,-99.99,,2013-03-14 00:24:00,
2013-03-13 19:29:00,62.0,-99.9,0.00,North,0,0.0,0.0,-999,0.00,,,-99.99,,2013-03-14 00:29:00,
2013-03-13 19:34:00,63.0,-99.9,0.00,North,0,0.0,0.0,-999,0.00,,,-99.99,,2013-03-14 00:34:00,
2013-03-13 19:39:00,62.0,-99.9,0.00,North,0,0.0,0.0,-999,0.00,,,-99.99,,2013-03-14 00:39:00,
2013-03-13 19:49:00,60.0,-99.9,0.00,WSW,257,5.0,5.0,-999,0.00,,,-99.99,,2013-03-14 00:49:00,
2013-03-13 19:54:00,60.0,-99.9,0.00,West,269,5.0,5.0,-999,0.00,,,-99.99,,2013-03-14 00:54:00,
2013-03-13 19:59:00,60.0,-99.9,0.00,West,262,5.0,6.0,-999,0.00,,,-99.99,,2013-03-14 00:59:00,
2013-03-13 20:04:00,60.0,-99.9,0.00,West,276,5.0,6.0,-999,0.00,,,-99.99,,2013-03-14 01:04:00,
2013-03-13 20:09:00,59.0,-99.9,0.00,West,279,5.0,6.0,-999,0.00,,,-99.99,,2013-03-14 01:09:00,
2013-03-13 20:14:00,59.0,-99.9,0.00,WNW,282,5.0,5.0,-999,0.00,,,-99.99,,2013-03-14 01:14:00,
2013-03-13 20:19:00,59.0,-99.9,0.00,WNW,286,4.0,5.0,-999,0.00,,,-99.99,,2013-03-14 01:19:00,
2013-03-13 20:24:00,59.0,-99.9,0.00,West,279,4.0,4.0,-999,0.00,,,-99.99,,2013-03-14 01:24:00,
2013-03-13 20:29:00,59.0,-99.9,0.00,West,274,3.0,4.0,-999,0.00,,,-99.99,,2013-03-14 01:29:00,
2013-03-13 20:34:00,58.0,-99.9,0.00,West,274,3.0,4.0,-999,0.00,,,-99.99,,2013-03-14 01:34:00,
2013-03-13 20:39:00,59.0,-99.9,0.00,WNW,300,4.0,5.0,-999,0.00,,,-99.99,,2013-03-14 01:39:00,
2013-03-13 20:44:00,59.0,-99.9,0.00,WNW,298,4.0,5.0,-999,0.00,,,-99.99,,2013-03-14 01:44:00,
2013-03-13 20:49:00,59.0,-99.9,0.00,WNW,292,4.0,4.0,-999,0.00,,,-99.99,,2013-03-14 01:49:00,
2013-03-13 20:54:00,58.0,-99.9,0.00,WNW,296,3.0,3.0,-999,0.00,,,-99.99,,2013-03-14 01:54:00,
2013-03-13 20:59:00,55.0,-99.9,0.00,North,0,0.0,0.0,-999,0.00,,,-99.99,,2013-03-14 01:59:00,
2013-03-13 21:04:00,55.0,-99.9,0.00,North,0,0.0,0.0,-999,0.00,,,-99.99,,2013-03-14 02:04:00,
2013-03-13 21:09:00,51.0,-99.9,0.00,SSE,152,4.0,5.0,-999,0.00,,,-99.99,,2013-03-14 02:09:00,
2013-03-13 21:14:00,51.0,-99.9,0.00,SSE,154,5.0,5.0,-999,0.00,,,-99.99,,2013-03-14 02:14:00,
2013-03-13 21:19:00,54.0,-99.9,0.00,SSE,152,4.0,4.0,-999,0.00,,,-99.99,,2013-03-14 02:19:00,
2013-03-13 21:24:00,55.0,-99.9,0.00,SE,135,4.0,4.0,-999,0.00,,,-99.99,,2013-03-14 02:24:00,
2013-03-13 21:29:00,50.0,-99.9,0.00,SE,133,5.0,5.0,-999,0.00,,,-99.99,,2013-03-14 02:29:00,
2013-03-13 21:34:00,49.0,-99.9,0.00,SE,144,6.0,6.0,-999,0.00,,,-99.99,,2013-03-14 02:34:00,
2013-03-13 21:39:00,50.0,-99.9,0.00,SE,142,6.0,6.0,-999,0.00,,,-99.99,,2013-03-14 02:39:00,
2013-03-13 21:45:00,50.0,-99.9,0.00,SE,138,7.0,7.0,-999,0.00,,,-99.99,,2013-03-14 02:45:00,
2013-03-13 21:54:00,50.0,-99.9,0.00,SE,134,7.0,8.0,-999,0.00,,,-99.99,,2013-03-14 02:54:00,
2013-03-13 21:59:00,49.0,-99.9,0.00,SSE,159,7.0,8.0,-999,0.00,,,-99.99,,2013-03-14 02:59:00,
2013-03-13 22:04:00,50.0,-99.9,0.00,SSE,155,7.0,8.0,-999,0.00,,,-99.99,,2013-03-14 03:04:00,
2013-03-13 22:09:00,49.0,-99.9,0.00,SE,142,7.0,8.0,-999,0.00,,,-99.99,,2013-03-14 03:09:00,
2013-03-13 22:14:00,51.0,-99.9,0.00,ESE,121,9.0,10.0,-999,0.00,,,-99.99,,2013-03-14 03:14:00,
2013-03-13 22:19:00,50.0,-99.9,0.00,ESE,107,10.0,12.0,-999,0.00,,,-99.99,,2013-03-14 03:19:00,
2013-03-13 22:24:00,49.0,-99.9,0.00,SE,124,11.0,14.0,-999,0.00,,,-99.99,,2013-03-14 03:24:00,
2013-03-13 22:29:00,47.0,-99.9,0.00,SE,140,12.0,13.0,-999,0.00,,,-99.99,,2013-03-14 03:29:00,
2013-03-13 22:34:00,47.0,-99.9,0.00,SE,144,10.0,12.0,-999,0.00,,,-99.99,,2013-03-14 03:34:00,
2013-03-13 22:39:00,47.0,-99.9,0.00,SSE,151,12.0,13.0,-999,0.00,,,-99.99,,2013-03-14 03:39:00,
2013-03-13 22:44:00,46.0,-99.9,0.00,SSE,149,11.0,13.0,-999,0.00,,,-99.99,,2013-03-14 03:44:00,
2013-03-13 22:49:00,45.0,-99.9,0.00,SE,125,10.0,12.0,-999,0.00,,,-99.99,,2013-03-14 03:49:00,
2013-03-13 22:54:00,46.0,-99.9,0.00,SE,144,10.0,13.0,-999,0.00,,,-99.99,,2013-03-14 03:54:00,
2013-03-13 22:59:00,46.0,-99.9,0.00,SE,144,10.0,12.0,-999,0.00,,,-99.99,,2013-03-14 03:59:00,
2013-03-13 23:04:00,45.0,-99.9,0.00,SE,141,10.0,11.0,-999,0.00,,,-99.99,,2013-03-14 04:04:00,
2013-03-13 23:09:00,44.0,-99.9,0.00,SE,145,10.0,11.0,-999,0.00,,,-99.99,,2013-03-14 04:09:00,
2013-03-13 23:14:00,44.0,-99.9,0.00,SE,137,10.0,11.0,-999,0.00,,,-99.99,,2013-03-14 04:14:00,
2013-03-13 23:19:00,43.0,-99.9,0.00,SE,144,10.0,11.0,-999,0.00,,,-99.99,,2013-03-14 04:19:00,
2013-03-13 23:24:00,43.0,-99.9,0.00,SSE,161,9.0,10.0,-999,0.00,,,-99.99,,2013-03-14 04:24:00,
2013-03-13 23:29:00,43.0,-99.9,0.00,SSE,151,9.0,10.0,-999,0.00,,,-99.99,,2013-03-14 04:29:00,
2013-03-13 23:34:00,43.0,-99.9,0.00,SSE,165,8.0,9.0,-999,0.00,,,-99.99,,2013-03-14 04:34:00,
2013-03-13 23:39:00,43.0,-99.9,0.00,South,175,10.0,11.0,-999,0.00,,,-99.99,,2013-03-14 04:39:00,
2013-03-13 23:44:00,44.0,-99.9,0.00,South,178,10.0,12.0,-999,0.00,,,-99.99,,2013-03-14 04:44:00,
2013-03-13 23:49:00,44.0,-99.9,0.00,South,179,13.0,14.0,-999,0.00,,,-99.99,,2013-03-14 04:49:00,
2013-03-13 23:54:00,44.0,-99.9,0.00,South,180,13.0,15.0,-999,0.00,,,-99.99,,2013-03-14 04:54:00,
2013-03-13 23:59:00,44.0,-99.9,0.00,South,171,12.0,14.0,-999,0.00,,,-99.99,,2013-03-14 04:59:00,